2020/04/01 00:00:01,20.7992694903,39.8176113294,1005.93869868
2020/04/01 00:30:01,20.7891592923,40.2364949407,1005.47068909
2020/04/01 01:00:01,20.7284981287,40.5276427851,1005.23560161
2020/04/01 01:30:02,20.6122310156,40.2934689114,1004.64147457
2020/04/01 02:00:02,20.5060742207,40.2608529314,1004.30318812
2020/04/01 02:30:01,20.4049726307,40.1964966441,1003.94699596
2020/04/01 03:00:01,20.3342015869,40.2118527351,1003.56253617
2020/04/01 03:30:02,20.3240914424,40.3336114682,1003.38646031
2020/04/01 04:00:01,20.3190363706,40.4501047462,1003.40443746
2020/04/01 04:30:01,20.2432103287,40.1581934947,1003.40904715
2020/04/01 05:00:01,20.1724394152,39.9934922096,1003.26317754
2020/04/01 05:30:01,20.1218887977,39.9189940539,1003.4163712
2020/04/01 06:00:01,20.0966134999,39.818208668,1003.26775751
2020/04/01 06:30:01,20.4858538934,39.842037902,1003.20863761
2020/04/01 07:00:02,21.208733488,39.926432269,1003.04770525
2020/04/01 07:30:01,21.8810674036,39.7660000651,1002.90542418
2020/04/01 08:00:01,21.8254606439,39.6274464812,1003.13060524
2020/04/01 08:30:02,21.6687508741,39.5999726562,1003.10575482
2020/04/01 09:00:01,21.6181993951,39.5678000146,1002.86126995
2020/04/01 09:30:01,21.6283096886,39.6794480583,1002.47992549
2020/04/01 10:00:01,21.6384199832,39.8601749526,1002.12513047
2020/04/01 10:30:01,21.6788611734,39.929512741,1001.55575321
2020/04/01 11:00:01,21.6839163235,39.9614294666,1001.19242406
2020/04/01 11:30:01,21.6788611734,39.9560825023,1000.97145511
2020/04/01 12:00:01,21.6788611734,40.0092214047,1000.67930974
2020/04/01 12:30:01,21.6889714738,40.0783694681,999.740186715
2020/04/01 13:00:02,21.6636957249,40.0888246839,998.980720943
2020/04/01 13:30:01,21.6889714738,40.3493656989,998.75754466
2020/04/01 14:00:01,21.7091920782,40.4504738572,998.260292496
2020/04/01 14:30:02,21.7647987643,40.5465514271,998.034780696
2020/04/01 15:00:01,21.8052400127,40.6265843494,997.677564205
2020/04/01 15:30:01,21.8052400127,40.6265843494,997.199458644
2020/04/01 16:00:01,21.7799642303,40.6104400721,996.891538067
2020/04/01 16:30:01,21.7395229936,40.5994906225,996.850403249
2020/04/01 17:00:01,21.6738060236,40.5511512215,996.607627395
2020/04/01 17:30:01,21.6080891028,40.5293847508,996.444543222
2020/04/01 18:00:01,21.5373170893,40.491649115,996.06062472
2020/04/01 18:30:01,21.4564348579,40.5547427712,995.633323199
2020/04/01 19:00:01,21.3957732333,40.5170917538,995.558424195
2020/04/01 19:30:02,21.3401667809,40.5485058197,995.465437813
2020/04/01 20:00:02,21.2592847312,40.356765418,995.09136211
2020/04/01 20:30:01,21.178402756,40.3243061922,994.690827103
2020/04/01 21:00:01,21.1278515593,40.3716845826,994.102271139
2020/04/01 21:30:02,21.0570799329,40.4454213279,993.55963482
2020/04/01 22:00:01,20.9761981439,40.4713072352,992.947192027
2020/04/01 22:30:01,20.9357572774,41.828597806,992.455376882
2020/04/01 23:00:01,20.9357572774,42.1042969159,991.978003652
2020/04/01 23:30:02,20.9205919572,42.3320773945,991.448848086
2020/04/02 00:00:01,20.8649858057,42.3260991244,990.772827609
2020/04/02 00:30:01,20.8245449904,42.4528039756,989.936564208
2020/04/02 01:00:01,20.7487185119,42.7644773901,989.015081779
2020/04/02 01:30:01,20.6880573763,42.9014120649,988.331071365
2020/04/02 02:00:01,20.6375064619,43.0172557701,987.690483205
2020/04/02 02:30:01,20.5819004897,42.8576008695,987.412638849
2020/04/02 03:00:01,20.5010191385,42.7505997099,987.198878427
2020/04/02 03:30:02,20.3898074022,42.8708826099,987.120268307
2020/04/02 04:00:01,20.3645320272,42.9234747699,987.263764534
2020/04/02 04:30:01,20.2634306001,42.7050898334,987.678680245
2020/04/02 05:00:02,20.1724394152,42.6615462432,987.898344374
2020/04/02 05:30:01,20.0511179821,42.7763225018,988.491192876
2020/04/02 06:00:01,20.1977147349,43.7306948943,988.999808113
2020/04/02 06:30:02,20.4807988123,44.2379691574,989.338194627
2020/04/02 07:00:01,20.8548756002,44.3236333587,989.218086322
2020/04/02 07:30:01,21.2542296056,44.6642827336,989.324997707
2020/04/02 08:00:02,21.6687508741,44.8624481593,989.589349286
2020/04/02 08:30:01,21.9215087056,44.6438844306,990.009496382
2020/04/02 09:00:01,22.0731637537,44.2905758618,990.314759125
2020/04/02 09:30:01,22.1944879808,43.989654415,990.357058734
2020/04/02 10:00:01,22.2905364461,43.6403252227,990.463600609
2020/04/02 10:30:01,22.4169161659,43.3816193076,990.673732932
2020/04/02 11:00:02,22.5129648745,43.2127574104,990.833447322
2020/04/02 11:30:01,22.6342897093,43.1292690259,990.90225145
2020/04/02 12:00:01,22.7000073982,42.4808913791,991.064721208
2020/04/02 12:30:01,22.780890775,41.6672988695,991.465215254
2020/04/02 13:00:01,22.8364981398,41.6518756141,991.690725693
2020/04/02 13:30:01,22.9325473074,41.466397524,991.930356558
2020/04/02 14:00:01,22.9780443182,41.3442997723,992.245531151
2020/04/02 14:30:02,22.9881547683,41.2804621398,992.661474018
2020/04/02 15:00:01,22.9527681982,41.1522903787,992.975037293
2020/04/02 15:30:01,22.9426577522,40.9817274364,993.437107407
2020/04/02 16:00:01,22.9224368638,40.7418250721,993.962128917
2020/04/02 16:30:01,22.8668294446,40.3258640095,994.66752406
2020/04/02 17:00:02,22.8061668456,39.867304463,995.364354636
2020/04/02 17:30:01,22.7202282354,39.4939186167,996.018810912
2020/04/02 18:00:01,22.6342897093,38.9075595276,996.939030135
2020/04/02 18:30:02,22.5837376744,39.4452918588,997.599107968
2020/04/02 19:00:02,22.5281304697,39.700597632,998.383577365
2020/04/02 19:30:02,22.4876888884,40.1315884121,999.166748499
2020/04/02 20:00:02,22.4371369379,40.3388347061,999.746736003
2020/04/02 20:30:01,22.3511986889,40.3275812121,1000.37357659
2020/04/02 21:00:02,22.3511986889,41.2853001116,1000.8255537
2020/04/02 21:30:01,22.2804260764,41.6250477511,1001.39788502
2020/04/02 22:00:01,22.148991376,41.7087948106,1001.78833292
2020/04/02 22:30:02,22.012501703,41.776484544,1002.19662108
2020/04/02 23:00:02,21.8911777274,41.7167584418,1002.49734069
2020/04/02 23:30:01,21.8204054857,41.7425854794,1002.61733423
2020/04/03 00:00:01,22.4068057816,40.9772064521,1003.07276223
2020/04/03 00:30:01,22.7505595,39.6112753357,1003.27892409
2020/04/03 01:00:02,22.9830995431,38.8128980026,1003.29768487
2020/04/03 01:30:02,23.2105849639,38.5843005878,1003.60061093
2020/04/03 02:00:02,23.4077394719,38.3446913424,1003.50625897
2020/04/03 02:30:01,23.529065543,37.9018263385,1003.87021269
2020/04/03 03:00:01,23.6301707303,37.4693361814,1003.66734513
2020/04/03 03:30:02,23.7161102311,37.1274315981,1003.35892598
2020/04/03 04:00:01,23.8121603609,36.8548209247,1003.44049979
2020/04/03 04:30:01,23.862713103,36.5874993382,1003.52551175
2020/04/03 05:00:01,23.9132658741,36.320095286,1003.71714789
2020/04/03 05:30:01,23.8981000397,36.5232826578,1003.47840411
2020/04/03 06:00:01,23.8424920026,36.667713024,1003.70472407
2020/04/03 06:30:01,23.8576578274,36.6195804585,1003.70358027
2020/04/03 07:00:01,23.8121603609,35.6254033789,1003.65370672
2020/04/03 07:30:01,23.6503917818,36.6466600784,1003.91451625
2020/04/03 08:00:02,23.4229052216,37.1382733996,1004.09109985
2020/04/03 08:30:01,23.2358611581,37.4478871967,1004.38869782
2020/04/03 09:00:01,23.0993697956,37.7039082964,1004.53155419
2020/04/03 09:30:01,22.9780443182,37.8797794301,1004.51350994
2020/04/03 10:00:02,22.8921055398,37.975630951,1004.47519214
2020/04/03 10:30:01,22.8011116309,38.0714305766,1004.2420764
2020/04/03 11:00:01,22.7303386557,38.2205203398,1004.06965666
2020/04/03 11:30:01,22.6898969813,38.2417454077,1004.16116706
2020/04/03 12:00:01,22.669676151,38.1351281415,1004.68577447
2020/04/03 12:30:01,22.6595657377,37.9965631489,1004.4293086
2020/04/03 13:00:01,22.669676151,38.0178960552,1004.49955072
2020/04/03 13:30:02,22.7303386557,38.1352515352,1004.28250176
2020/04/03 14:00:01,22.8011116309,38.0501092521,1004.32190252
2020/04/03 14:30:02,22.90221598,37.9383252016,1004.46561186
2020/04/03 15:00:01,22.9830995431,37.8531221962,1004.12277961
2020/04/03 15:30:01,23.1195907248,37.8212881967,1004.05979421
2020/04/03 16:00:01,23.1195907248,37.7946154823,1004.37925959
2020/04/03 16:30:01,23.053872722,37.789207949,1004.53477625
2020/04/03 17:00:01,22.9578234216,37.8477568589,1004.66575477
2020/04/03 17:30:01,22.8415533566,37.9915422639,1005.02868776
2020/04/03 18:00:01,22.6797865656,38.1298200377,1005.26150055
2020/04/03 18:30:01,22.538240868,38.2413956983,1005.92717833
2020/04/03 19:00:01,22.4118609736,38.3795548906,1006.51172352
2020/04/03 19:30:01,22.2854812611,37.2504104057,1006.53761166
2020/04/03 20:00:02,22.2248190638,38.0383602305,1006.59467548
2020/04/03 20:30:01,22.2197638826,38.363061987,1006.66589449
2020/04/03 21:00:01,22.2298742453,38.6239072712,1006.68297348
2020/04/03 21:30:01,22.3410883122,38.9117539898,1006.89744251
2020/04/03 22:00:01,22.4472473257,40.0461541355,1006.97041669
2020/04/03 22:30:01,22.5432960675,41.7074992918,1006.97308897
2020/04/03 23:00:01,22.7505595,41.8213926316,1006.89750178
2020/04/03 23:30:02,22.8617742264,41.3964938602,1006.89904072
2020/04/04 00:00:01,22.9173816424,40.7364580601,1006.62032826
2020/04/04 00:30:01,22.9628786454,40.1826455008,1006.19140836
2020/04/04 01:00:01,23.0285965801,39.6927022347,1006.0361043
2020/04/04 01:30:01,23.2004744882,39.2403278159,1005.90005354
2020/04/04 02:00:01,23.3369660078,38.7820816318,1005.78404047
2020/04/04 02:30:01,23.4684024865,38.4142181275,1005.73929238
2020/04/04 03:00:01,23.569507604,38.0941014262,1005.53675861
2020/04/04 03:30:01,23.6554470453,37.7043585079,1005.01546537
2020/04/04 04:00:01,23.7363313023,37.3892160667,1004.9118737
2020/04/04 04:30:01,23.7919392722,37.1541023367,1004.6057623
2020/04/04 05:00:01,23.7666629179,36.9457210344,1004.53655895
2020/04/04 05:30:02,23.4178499714,37.5013196572,1004.668557
2020/04/04 06:00:01,23.1903640137,37.7733513851,1004.49845767
2020/04/04 06:30:01,23.053872722,37.7998755011,1004.29520086
2020/04/04 07:00:01,22.9477129751,37.7944191722,1004.1696499
2020/04/04 07:30:01,22.8112220605,36.9305457649,1003.83336345
2020/04/04 08:00:01,22.7859459885,37.8901731227,1003.7641978
2020/04/04 08:30:02,22.7606699238,38.1619612623,1003.58860916
2020/04/04 09:00:01,22.7707803488,38.5989986549,1003.15331475
2020/04/04 09:30:02,22.7707803488,38.6256441935,1002.56797527
2020/04/04 10:00:01,22.8263877072,39.0255246523,1002.20915169
2020/04/04 10:30:01,22.8668294446,39.4307122701,1001.85138119
2020/04/04 11:00:01,22.9224368638,39.6068570495,1001.11986318
2020/04/04 11:30:01,22.9628786454,39.4684902109,1000.52244856
2020/04/04 12:00:01,22.8921055398,35.7249746998,999.871499595
2020/04/04 12:30:01,22.9325473074,34.9991231218,999.486944176
2020/04/04 13:00:01,22.8011116309,29.9971533991,998.867538636
2020/04/04 13:30:01,22.8314429234,28.6926571837,998.333038725
2020/04/04 14:00:01,23.0336518079,29.4908166356,998.059584645
2020/04/04 14:30:01,23.1499221274,29.879146975,997.801709068
2020/04/04 15:00:01,23.2661926008,30.5831529628,997.676800979
2020/04/04 15:30:01,23.3925737248,31.5118485291,997.62196006
2020/04/04 16:00:01,23.3875184763,30.1533624891,997.853160269
2020/04/04 16:30:01,23.3167450286,32.197153947,997.947755981
2020/04/04 17:00:01,23.2864135684,32.7052690077,998.083371537
2020/04/04 17:30:01,23.2055297259,33.3686416896,998.054489365
2020/04/04 18:00:01,23.1347564248,33.9728212899,998.228837256
2020/04/04 18:30:01,23.048817493,33.5516032735,998.164815085
2020/04/04 19:00:02,22.9123264213,33.4993594974,998.734590232
2020/04/04 19:30:01,22.8314429234,34.386003938,999.344060135
2020/04/04 20:00:01,22.7505595,34.9253622973,999.580913641
2020/04/04 20:30:01,22.6444001198,35.3205568923,1000.65305022
2020/04/04 21:00:02,22.5432960675,35.6195388441,1000.98863196
2020/04/04 21:30:01,22.4320817445,35.9077254126,1001.06776314
2020/04/04 22:00:01,22.6949521896,36.5787743531,1001.21674839
2020/04/04 22:30:01,23.0639831808,36.6369016047,1001.1179945
2020/04/04 23:00:01,23.3369660078,36.2573977767,1001.07040761
2020/04/04 23:30:01,23.529065543,35.738724197,1001.28631102
2020/04/05 00:00:01,23.711054964,35.4440715901,1001.67173949
2020/04/05 00:30:01,23.8424920026,34.9194550435,1001.46600545
2020/04/05 01:00:01,23.9385422707,34.5070260573,1001.04081751
2020/04/05 01:30:01,24.0447032155,34.0889388068,1000.8456877
2020/04/05 02:00:02,24.1205325403,33.7511502185,1000.86621196
2020/04/05 02:30:01,24.1660301667,33.5312729878,1000.88918302
2020/04/05 03:00:01,24.2266937051,33.2576453221,1000.9909134
2020/04/05 03:30:01,24.2721913865,33.0269204869,1000.85386763
2020/04/05 04:00:01,24.3075784883,32.7587425067,1000.75318387
2020/04/05 04:30:01,24.2823019856,32.7750801654,1001.0041639
2020/04/05 05:00:01,24.1963619307,33.0383887565,1000.91338253
2020/04/05 05:30:01,24.1306431219,32.8355804037,1001.04314108
2020/04/05 06:00:02,24.0851455139,32.5737026406,1001.15345606
2020/04/05 06:30:01,24.0649243624,32.3918817934,1001.17285527
2020/04/05 07:00:01,24.0952560914,32.0916605008,1000.98378979
2020/04/05 07:30:01,23.9638186744,32.4572661771,1000.84332161
2020/04/05 08:00:02,23.7312760341,33.2355520536,1000.77308958
2020/04/05 08:30:02,23.5138997749,33.1894591506,1000.9412185
2020/04/05 09:00:02,23.4734577396,33.4998917031,1000.68691779
2020/04/05 09:30:01,23.478512993,33.5105389811,1000.48232257
2020/04/05 10:00:01,23.448181477,33.4787298788,1000.45808192
2020/04/05 10:30:01,23.4178499714,32.0355748622,999.688156846
2020/04/05 11:00:01,23.3875184763,31.3996139429,999.264502769
2020/04/05 11:30:01,23.3167450286,29.983338751,998.799787086
2020/04/05 12:00:01,23.2611373596,29.4868167769,998.413797869
2020/04/05 12:30:01,23.1853087769,29.2474704995,998.393329711
2020/04/05 13:00:01,23.0993697956,29.847910893,997.770350146
2020/04/05 13:30:01,23.0083756719,30.9504528436,997.804372825
2020/04/05 14:00:01,22.8819951009,31.844310433,997.406625161
2020/04/05 14:30:01,22.7404490773,32.0809521949,997.675230892
2020/04/05 15:00:02,22.7000073982,32.5671840346,997.155356091
2020/04/05 15:30:01,22.7101178162,32.5457266424,997.145671263
2020/04/05 16:00:01,22.5685720697,33.0060922277,996.802512388
2020/04/05 16:30:01,22.4371369379,33.0980065137,997.380318362
2020/04/05 17:00:01,22.2905364461,33.1953257508,997.321034513
2020/04/05 17:30:01,22.1338258463,33.4312291026,997.669970975
2020/04/05 18:00:01,21.9518396942,33.3261936473,998.082560964
2020/04/05 18:30:02,21.8810674036,32.7035195222,998.123369507
2020/04/05 19:00:01,21.8102951701,33.2155520816,998.668833621
2020/04/05 19:30:02,21.9164535418,33.0548026648,998.767140859
2020/04/05 20:00:01,22.0428327231,33.7250389795,998.925913539
2020/04/05 20:30:01,22.0731637537,34.3321847532,999.029922159
2020/04/05 21:00:02,22.0327223819,34.9236762008,998.776099731
2020/04/05 21:30:01,21.9872258609,35.2274384125,998.407551826
2020/04/05 22:00:02,21.9518396942,35.4671851953,998.215401725
2020/04/05 22:30:01,22.4725233002,35.4385589751,998.130882842
2020/04/05 23:00:01,22.8466085736,34.7967998936,997.879530494
2020/04/05 23:30:02,22.9932099938,34.4116476287,997.778991845
2020/04/06 00:00:01,22.8314429234,34.3006201403,997.481675064
2020/04/06 00:30:02,22.6191240958,34.2860195237,996.860471697
2020/04/06 01:00:01,22.3966953985,34.2288321349,996.009926908
2020/04/06 01:30:01,22.1591017306,34.2570433577,995.71911391
2020/04/06 02:00:01,22.1136051441,33.9696140453,995.749363894
2020/04/06 02:30:01,22.2147087016,33.8889455016,995.758903456
2020/04/06 03:00:01,22.3057020029,33.8029802657,995.326209578
2020/04/06 03:30:01,22.381529826,33.7384212357,995.293383231
2020/04/06 04:00:01,22.4371369379,33.6579985836,995.1469932
2020/04/06 04:30:01,22.4876888884,33.577594043,995.178243419
2020/04/06 05:00:01,22.538240868,33.5185055332,994.970173046
2020/04/06 05:30:01,22.538240868,33.5398424777,994.970173046
2020/04/06 06:00:02,22.492744085,33.5188825982,995.293040969
2020/04/06 06:30:01,22.2854812611,33.1420532906,995.770874185
2020/04/06 07:00:01,22.3461435004,33.9839401058,996.244427328
2020/04/06 07:30:01,22.3663642562,34.2077091239,996.544080083
2020/04/06 08:00:01,22.5483512674,34.1798202217,996.635730268
2020/04/06 08:30:01,22.7606699238,34.1676939697,996.911026173
2020/04/06 09:00:02,22.9679338694,34.1128684404,996.725497098
2020/04/06 09:30:01,23.1398116587,33.801874698,996.799936717
2020/04/06 10:00:01,23.3723527327,33.4152567463,996.762686583
2020/04/06 10:30:01,23.5138997749,32.6654644984,996.413347709
2020/04/06 11:00:01,23.5189550307,30.9056806282,996.075565356
2020/04/06 11:30:01,23.5492865712,30.1239838313,995.566908944
2020/04/06 12:00:01,23.529065543,30.4774896919,995.666321599
2020/04/06 12:30:01,23.5492865712,31.178102717,995.51364169
2020/04/06 13:00:02,23.4532367289,31.4950072283,995.326705969
2020/04/06 13:30:01,23.448181477,31.8266541179,995.291640166
2020/04/06 14:00:02,23.448181477,31.9549991843,994.625917403
2020/04/06 14:30:01,23.3268555176,32.1435790122,994.716443826
2020/04/06 15:00:01,23.1246459579,32.2153948457,994.778393347
2020/04/06 15:30:01,23.0134308985,32.1792704092,994.699283243
2020/04/06 16:00:01,22.9224368638,32.3512194819,994.840136016
2020/04/06 16:30:01,22.8415533566,32.4055095459,994.758362509
2020/04/06 17:00:01,22.7252834454,32.5882704603,994.803717303
2020/04/06 17:30:02,22.6140688919,32.7655347373,995.096782255
2020/04/06 18:00:02,22.477578496,32.9589423674,995.507005199
2020/04/06 18:30:01,22.4068057816,33.2262831226,995.521701525
2020/04/06 19:00:02,22.477578496,33.6363436308,996.224897619
2020/04/06 19:30:01,22.477578496,33.2149837743,996.171719895
2020/04/06 20:00:01,22.4573577146,32.6230670543,996.510150642
2020/04/06 20:30:01,22.5584616679,33.2729421166,996.785601852
2020/04/06 21:00:01,22.5786824726,33.8595759825,996.686455276
2020/04/06 21:30:02,22.2602053405,34.1764371787,996.605759233
2020/04/06 22:00:01,22.1793224433,34.5499832108,997.055156231
2020/04/06 22:30:01,22.2399846092,35.5140538368,997.23642005
2020/04/06 23:00:01,22.2197638826,36.0841049348,997.255732722
2020/04/06 23:30:01,22.1641569083,36.2333563083,997.42842194
2020/04/07 00:00:01,22.3057020029,36.3822224813,997.559080002
2020/04/07 00:30:02,22.4068057816,36.1049637679,997.515660402
2020/04/07 01:00:01,22.3714194458,36.046438328,997.21715733
2020/04/07 01:30:02,22.3916402074,35.9558001197,997.543445901
2020/04/07 02:00:02,22.3461435004,35.5403037414,997.520451392
2020/04/07 02:30:02,22.3562538777,35.0233220351,997.829810788
2020/04/07 03:00:01,22.3208675623,34.7356986817,998.249059512
2020/04/07 03:30:01,22.2804260764,34.4960945314,998.26105426
2020/04/07 04:00:01,22.2500949743,34.3044171641,997.944431157
2020/04/07 04:30:01,22.2045983406,34.0648944231,997.655600686
2020/04/07 05:00:02,22.1944879808,33.969036295,998.701807324
2020/04/07 05:30:02,22.1944879808,34.2301682423,998.648649723
2020/04/07 06:00:01,22.2298742453,33.9901020972,999.159831987
2020/04/07 06:30:01,22.2399846092,33.552947128,999.336273588
2020/04/07 07:00:01,22.1894328013,33.6492956159,999.331225872
2020/04/07 07:30:02,22.0175568723,34.0715141652,999.574396041
2020/04/07 08:00:01,21.8507364394,34.2483790678,999.932060214
2020/04/07 08:30:01,21.7193023822,34.2758339728,999.791103345
2020/04/07 09:00:01,21.6283096886,34.3030159282,1000.08980572
2020/04/07 09:30:02,21.5625928018,34.3140652777,1000.21842601
2020/04/07 10:00:01,21.7445781471,34.1798494743,1000.28506941
2020/04/07 10:30:01,21.8760122422,34.3121185159,1000.26672375
2020/04/07 11:00:01,21.9215087056,34.2798790033,1000.15714682
2020/04/07 11:30:01,21.8911777274,33.74750001,999.787417248
2020/04/07 12:00:01,21.8810674036,33.9020271053,999.557916891
2020/04/07 12:30:01,21.8709570811,33.9979601706,999.381556321
2020/04/07 13:00:01,21.8406261203,34.0194720845,999.197845097
2020/04/07 13:30:01,21.8355709612,34.0727570432,999.162800673
2020/04/07 14:00:01,21.8153503277,34.0941931687,998.942938834
2020/04/07 14:30:01,21.8052400127,34.1102349358,998.925981928
2020/04/07 15:00:01,21.8204054857,34.1420814441,998.898290947
2020/04/07 15:30:01,21.7900745424,34.1529310661,999.139604707
2020/04/07 16:00:01,21.7193023822,34.1054858215,999.074001861
2020/04/07 16:30:01,21.6283096886,34.0635124584,999.133803781
2020/04/07 17:00:01,21.5575376588,34.1863840692,999.413351926
2020/04/07 17:30:01,21.4817105472,34.2666783257,999.551584685
2020/04/07 18:00:01,21.3452219115,34.3685803743,999.481737464
2020/04/07 18:30:01,21.1986232428,34.5076841777,1000.05830981
2020/04/07 19:00:01,21.0570799329,34.6626005763,1000.45730731
2020/04/07 19:30:01,20.8801511163,34.190659675,1000.50476945
2020/04/07 20:00:01,20.7133328444,34.3828879227,1000.75470087
2020/04/07 20:30:01,20.6577268241,34.8292434989,1000.63467141
2020/04/07 21:00:01,20.5667352307,35.0738510433,1000.58770733
2020/04/07 21:30:01,20.4757437315,35.4350832326,1000.6467538
2020/04/07 22:00:02,20.4049726307,35.7111947204,1000.68675367
2020/04/07 22:30:01,20.3847523266,36.8516338537,1000.81176532
2020/04/07 23:00:01,20.3291465145,37.09554237,1000.71822009
2020/04/07 23:30:01,20.2735407376,37.0955092581,1000.65117822
2020/04/08 00:00:01,20.2128799302,37.1484794454,1000.31066706
2020/04/08 00:30:01,20.1319989189,37.2385122841,1000.04218524
2020/04/08 01:00:01,20.046062926,37.1960375361,1000.08311862
2020/04/08 01:30:01,19.9904573284,37.2807525183,999.883666244
2020/04/08 02:00:01,19.9146315702,37.1641309442,999.862112435
2020/04/08 02:30:01,19.8438609217,37.1322887914,999.769599139
2020/04/08 03:00:01,19.7427600941,37.1216106221,999.864376703
2020/04/08 03:30:01,19.6820996534,37.132146263,1000.05357745
2020/04/08 04:00:01,19.6113291923,37.1267872848,1000.25218854
2020/04/08 04:30:02,19.5759439831,37.1161680312,1000.43087881
2020/04/08 05:00:02,20.0359528148,36.8410084906,1000.41047277
2020/04/08 05:30:01,20.4555234111,36.2946589003,1000.61274497
2020/04/08 06:00:01,20.7689388998,36.039413761,1000.7951785
2020/04/08 06:30:02,21.0722452766,35.8900399799,1001.19918998
2020/04/08 07:00:01,21.2542296056,34.9274146433,1001.18681027
2020/04/08 07:30:02,21.491820825,34.9103392242,1001.32088849
2020/04/08 08:00:02,21.2896154911,35.2143599504,1001.61791685
2020/04/08 08:30:02,21.178402756,35.363630015,1001.5104412
2020/04/08 09:00:01,21.1025759719,35.5392679696,1001.88704372
2020/04/08 09:30:01,21.0368594786,35.815748667,1002.01523356
2020/04/08 10:00:01,21.0267492533,35.6670200568,1002.02474652
2020/04/08 10:30:02,21.0267492533,35.7148347337,1002.02474652
2020/04/08 11:00:01,21.0671901617,35.7147214062,1001.90708922
2020/04/08 11:30:01,21.1025759719,35.7039944961,1001.72783318
2020/04/08 12:00:01,21.1480720345,35.581636322,1001.40634216
2020/04/08 12:30:01,21.213788611,35.5814291511,1001.35765642
2020/04/08 13:00:01,21.2693949834,35.6290946569,1001.61044129
2020/04/08 13:30:01,21.3148911324,35.6023726734,1001.60735169
2020/04/08 14:00:01,21.3351116506,35.5810424284,1001.32283279
2020/04/08 14:30:01,21.3654424368,35.6341142238,1001.42693521
2020/04/08 15:00:01,21.3401667809,35.7405226343,1001.57023811
2020/04/08 15:30:01,21.304780875,35.7937829102,1001.96195383
2020/04/08 16:00:01,21.2896154911,35.7938241011,1001.77717426
2020/04/08 16:30:01,21.2390642304,35.8258514039,1001.66557749
2020/04/08 17:00:01,21.1480720345,35.9483079901,1001.9370803
2020/04/08 17:30:02,21.0368594786,36.0548104454,1001.88257144
2020/04/08 18:00:01,20.9155368511,36.1612692661,1002.44767213
2020/04/08 18:30:01,20.8447653958,36.3313021645,1002.19585619
2020/04/08 19:00:02,20.8194898898,36.6020974665,1001.75544551
2020/04/08 19:30:01,20.8093796895,36.9259213412,1001.36711232
2020/04/08 20:00:01,20.8194898898,37.0373948663,1001.46369262
2020/04/08 20:30:01,21.3957732333,39.8480080458,1002.14163648
2020/04/08 21:00:01,22.1034947948,39.7300939009,1003.17361874
2020/04/08 21:30:01,22.5989032819,39.5678580526,1002.97051456
2020/04/08 22:00:01,22.9426577522,39.87343367,1003.22963808
2020/04/08 22:30:02,22.9830995431,39.3513208544,1003.80338578
2020/04/08 23:00:01,22.9729890937,38.9034926144,1003.94605943
2020/04/08 23:30:01,22.9173816424,38.7060577885,1003.71936965
2020/04/09 00:00:01,22.8617742264,38.5832839382,1004.18459282
2020/04/09 00:30:02,22.8263877072,38.5245497362,1004.20482323
2020/04/09 01:00:01,22.8112220605,38.524506298,1003.99301657
2020/04/09 01:30:02,22.9527681982,38.2476630268,1004.25800857
2020/04/09 02:00:02,23.053872722,37.7572050932,1003.86929311